Theta_e
330 331 332 330 331 329 329 328 328 328 329 328 328 326 329 331 325 322 330 335 331 333 335 333 334 336 336 336 336 335 336 335 337 345 355 357 359 362 362 360 358 357 355 355 355 355 352 347 342 335 331 334 336 332 330 333 334 335 338 335 330 329 331 327 324 326 327 329 331 331 331 332 332 332 332 332 332 331 330 329 328 328 328 329 329 330 330
329 331 330 330 330 329 329 330 329 329 330 329 329 329 330 331 329 329 335 336 335 336 336 334 335 336 336 335 336 334 335 336 335 341 352 357 357 359 361 359 359 357 357 358 357 354 350 345 340 334 332 336 337 329 326 331 335 337 338 333 325 324 327 324 323 325 324 325 327 329 331 333 333 333 332 332 331 330 329 329 328 329 329 329 329 329 329
325 329 329 328 330 329 327 327 329 331 330 330 330 330 330 331 330 332 334 333 333 337 336 334 336 337 337 336 335 334 334 333 334 338 347 353 354 356 358 359 359 358 359 359 358 354 349 345 339 335 336 336 331 327 329 335 336 337 336 331 322 320 322 322 324 325 325 326 327 329 332 333 333 333 332 331 331 330 329 328 329 329 330 329 329 329 330
322 328 329 328 330 330 325 325 328 328 328 328 329 331 331 331 330 332 332 329 332 335 335 335 336 337 337 335 334 333 332 334 339 340 341 347 351 353 357 359 359 359 360 360 358 354 350 345 340 336 336 332 327 329 334 337 336 337 336 330 323 321 322 322 322 323 325 328 329 330 333 333 333 332 331 330 330 330 329 329 329 329 329 329 329 329 330
322 326 329 328 328 324 321 323 327 330 330 330 330 331 333 333 333 333 330 330 334 335 335 336 336 335 335 334 334 336 337 340 343 344 343 344 349 352 355 357 358 358 359 359 357 354 350 345 340 337 334 330 327 329 334 336 337 339 339 335 328 325 325 324 323 323 324 328 330 332 333 334 333 332 331 330 330 329 329 328 328 329 329 329 329 329 330
322 326 327 327 324 319 321 328 331 331 331 331 330 330 331 334 335 333 333 333 334 334 334 334 334 333 333 334 335 339 342 341 341 343 345 345 348 351 353 354 357 357 358 357 356 353 350 345 341 337 334 332 330 328 330 335 336 335 337 337 333 329 328 326 324 324 326 329 332 334 334 333 333 333 331 331 330 329 328 328 329 329 329 328 328 328 328
323 325 326 323 321 322 329 334 333 332 332 332 332 332 332 333 335 334 334 333 333 334 334 333 333 333 333 336 338 339 341 340 340 342 346 348 348 351 352 353 355 355 356 356 355 352 350 346 342 340 337 336 335 330 329 336 336 330 329 330 330 331 332 329 326 325 328 330 332 334 335 334 334 333 332 331 330 329 329 328 329 330 328 328 328 327 327
324 323 323 322 326 332 337 338 334 333 335 333 331 331 332 333 333 334 335 333 333 335 334 332 332 333 335 336 337 339 341 341 340 341 345 348 348 351 352 352 354 355 355 354 354 352 349 345 343 342 341 339 339 335 334 338 337 332 325 323 326 331 333 332 330 329 331 333 333 335 336 335 335 334 333 331 330 329 329 329 330 330 328 327 327 327 328
326 322 321 326 331 333 335 337 335 334 334 334 332 329 331 334 334 333 334 334 334 334 333 332 333 335 337 335 333 338 341 342 341 341 343 345 348 350 352 351 353 354 353 354 353 351 347 344 343 342 342 341 341 339 339 339 338 337 333 326 326 329 331 333 334 334 335 335 335 336 336 335 335 335 333 331 330 329 329 329 330 329 328 327 327 327 327
327 324 322 326 327 326 331 335 336 334 333 334 334 330 330 334 334 333 335 335 334 334 332 331 333 336 336 333 331 336 341 342 342 343 342 344 346 349 350 351 353 353 353 353 352 349 346 344 343 341 341 342 342 341 340 339 338 341 340 334 330 330 330 332 335 336 336 336 335 335 336 335 335 334 333 331 330 329 329 329 329 329 328 328 328 328 328
326 324 322 323 322 324 332 336 336 334 333 334 334 330 328 332 333 333 334 334 334 333 332 332 335 336 333 330 332 338 339 339 341 342 342 343 347 349 350 351 353 353 353 352 351 348 346 344 342 341 340 341 342 341 341 339 338 341 341 338 335 334 333 333 335 336 336 336 336 335 335 335 334 333 333 331 330 329 329 329 329 328 328 327 327 328 327
325 324 323 323 324 328 336 337 333 334 335 335 332 325 325 330 333 332 333 334 333 332 332 333 335 335 332 332 336 338 337 337 341 343 344 344 347 349 349 351 351 347 346 347 346 346 344 343 341 341 341 341 340 341 342 340 337 338 339 339 338 337 336 335 335 336 337 336 336 334 334 334 333 333 332 331 330 330 329 328 328 327 327 327 327 328 328
324 323 322 322 326 334 337 334 333 335 334 330 327 324 329 332 333 333 332 332 331 331 332 333 334 334 332 333 337 337 335 337 342 344 345 346 347 347 349 349 345 338 336 338 339 342 343 340 339 340 341 341 340 341 344 343 340 338 338 339 339 339 338 336 335 337 337 337 336 335 333 333 333 333 332 331 331 331 329 328 328 328 328 328 327 328 328
323 325 323 321 326 335 336 332 334 333 330 327 327 331 335 334 332 333 333 332 331 332 331 332 334 333 332 333 336 335 335 339 342 343 344 345 345 345 346 344 339 337 338 336 337 342 342 337 337 339 337 334 333 336 340 342 341 338 337 338 339 339 339 337 335 335 337 337 336 335 334 334 333 333 333 332 332 331 329 329 328 328 328 328 328 328 328
324 323 323 321 325 335 336 332 333 333 330 332 336 338 336 333 332 333 333 331 332 331 332 333 334 333 332 334 335 334 337 341 341 341 342 342 343 344 343 340 338 340 341 338 338 341 339 338 339 338 334 333 331 332 335 337 337 338 337 337 338 339 340 338 333 333 336 337 336 335 334 333 333 333 333 333 331 331 331 330 330 329 329 329 329 328 328
326 322 324 327 330 335 334 333 335 335 333 336 338 336 334 333 333 333 332 331 332 332 334 336 335 333 334 334 334 335 339 340 340 341 341 341 343 342 339 337 338 339 340 340 339 337 336 338 341 339 335 335 334 332 332 332 333 336 338 337 337 338 340 338 334 333 336 336 335 335 335 333 332 331 330 330 330 330 331 331 331 330 330 330 329 328 327
333 330 333 335 334 334 334 333 335 336 333 333 333 332 333 333 333 332 332 332 332 332 336 338 336 335 335 334 336 339 340 340 342 343 342 341 341 339 336 337 338 337 339 340 341 341 338 334 335 335 333 332 332 330 330 329 331 336 339 339 339 340 341 340 337 336 337 337 336 335 335 334 333 331 330 331 331 330 330 330 330 331 330 330 329 328 327
335 335 335 335 335 334 332 332 333 333 333 334 335 336 336 336 336 335 335 335 336 334 335 338 338 335 334 335 337 339 339 340 342 344 343 341 339 336 337 339 339 338 338 338 340 343 341 335 332 333 332 330 330 330 328 329 333 338 341 341 340 340 340 340 338 337 337 336 335 335 335 335 333 331 331 333 333 330 328 329 330 330 330 328 328 327 326
333 333 334 333 333 332 332 333 333 332 332 334 335 336 338 338 337 338 337 338 338 337 337 338 337 336 336 337 338 338 340 342 345 345 345 343 341 341 342 341 337 335 337 337 338 340 341 340 340 339 337 337 336 333 332 333 337 341 341 339 338 339 340 339 338 338 337 335 334 335 334 333 332 331 332 333 332 329 328 328 328 329 328 327 327 326 326
333 334 335 332 331 332 332 331 330 329 331 332 334 335 336 336 337 337 337 338 339 338 338 338 338 337 337 337 340 341 342 344 345 345 344 344 343 343 340 336 333 332 334 335 336 335 334 335 335 331 331 334 334 334 335 335 337 340 341 339 339 340 341 340 337 336 335 335 336 335 333 330 331 332 331 329 328 326 327 327 328 328 327 327 327 327 326
333 334 335 332 330 332 331 328 327 328 330 332 333 334 335 336 337 337 338 338 338 337 338 338 339 338 337 339 342 340 339 340 341 343 344 343 340 336 332 329 329 330 329 328 328 327 325 325 323 322 322 326 327 329 331 333 334 337 340 341 341 339 338 337 335 334 334 335 335 334 332 330 331 330 328 325 324 326 327 328 328 327 326 326 326 325 325
331 333 334 333 332 333 331 328 326 328 330 331 332 332 334 334 335 336 336 336 337 337 338 339 340 339 337 339 339 336 335 338 340 342 345 343 336 331 328 326 326 326 325 324 323 321 320 320 319 320 322 325 326 327 328 331 333 335 338 340 338 335 334 333 333 333 334 333 331 330 330 330 330 329 327 325 326 327 327 327 327 326 324 322 322 323 322
330 331 331 330 331 332 330 327 326 328 330 330 328 329 331 331 331 335 336 334 334 336 336 337 339 340 340 339 337 336 337 339 340 341 340 336 332 328 325 324 325 324 322 320 320 319 319 321 321 322 325 329 331 330 331 333 333 335 336 336 335 333 332 331 331 332 332 330 330 329 329 329 329 328 327 326 326 326 326 326 325 324 322 321 321 321 321
329 327 326 327 328 328 327 325 325 327 329 328 326 327 327 328 329 331 334 336 335 334 334 335 336 338 339 337 334 335 336 337 339 340 334 328 327 328 326 325 323 321 320 320 319 320 321 322 323 325 328 332 332 330 331 333 333 333 335 335 333 332 331 330 330 331 330 330 330 329 329 328 329 329 328 327 326 325 325 325 324 323 321 321 321 321 321
325 324 324 325 324 324 325 324 324 326 327 326 325 325 325 326 326 328 332 335 335 333 333 333 334 334 335 334 333 334 336 338 338 336 330 326 325 326 328 330 325 320 320 321 320 322 324 324 325 327 328 331 330 326 327 331 330 330 332 333 333 332 332 331 331 332 332 332 331 329 329 329 330 329 329 328 326 325 325 325 324 323 322 321 321 321 321
323 322 321 321 322 323 324 324 325 326 325 325 324 325 324 325 325 325 328 331 332 332 332 331 332 332 333 332 332 333 336 337 334 329 326 326 325 325 330 334 328 321 320 321 322 324 327 326 326 327 328 331 330 326 326 328 327 324 326 329 331 331 331 331 331 331 331 332 330 330 329 329 328 329 329 328 327 327 325 324 324 323 321 321 320 321 321
320 319 319 320 321 322 322 323 324 324 323 322 324 324 323 323 324 325 326 327 329 331 330 329 331 332 333 334 334 336 337 335 331 328 328 328 327 329 333 334 328 322 323 324 322 323 324 324 325 329 330 330 328 325 325 326 323 321 322 326 329 330 330 330 329 329 329 329 329 329 329 329 329 330 329 328 327 327 326 324 323 321 320 320 321 321 321
317 317 317 318 320 320 321 321 321 321 321 322 322 323 322 323 323 324 324 325 326 328 328 329 331 331 334 336 335 334 335 333 329 330 332 330 329 331 332 330 327 327 328 327 324 323 324 324 326 331 332 329 326 326 327 326 324 324 325 327 328 329 329 329 329 329 328 329 329 329 329 329 329 329 328 327 326 326 325 324 322 321 321 321 321 319 318
317 317 318 319 320 320 321 320 321 321 321 321 321 321 321 322 322 323 323 324 324 326 326 328 330 330 332 333 332 332 333 332 329 332 333 331 330 332 330 327 328 330 331 330 328 326 326 327 327 330 330 329 328 328 328 327 326 327 327 328 328 328 329 328 329 328 328 328 329 328 327 327 328 328 327 325 324 324 323 323 322 322 321 320 319 318 317
318 319 320 320 320 320 320 320 321 321 321 321 322 321 321 320 321 322 322 323 324 325 325 327 329 330 331 330 330 330 329 329 331 335 335 332 332 331 329 328 330 331 332 331 329 327 327 327 328 329 329 329 328 328 328 327 327 327 327 328 328 328 328 327 327 326 325 325 326 326 325 326 326 326 325 324 323 323 322 321 321 320 319 318 318 317 316
320 321 320 320 319 319 320 320 321 321 322 322 323 322 322 322 321 321 322 322 323 323 324 325 327 330 331 330 328 327 327 329 333 336 335 334 332 330 328 329 331 332 333 333 331 328 328 327 328 328 328 327 327 327 327 327 327 327 328 327 327 327 326 325 324 323 323 323 324 326 326 326 325 325 324 323 322 322 321 319 318 317 317 317 316 315 316
321 321 320 321 321 321 321 322 323 323 323 322 323 322 322 322 322 322 322 322 322 322 323 324 326 330 332 331 329 329 331 333 335 336 335 332 329 327 327 329 331 332 332 330 328 327 327 326 327 327 327 326 326 325 325 326 326 326 327 326 326 326 325 324 324 323 323 324 324 325 325 324 324 323 323 322 321 320 319 318 317 316 315 314 314 314 315
322 321 322 323 324 323 324 324 323 323 322 321 321 321 321 321 322 322 322 322 322 322 323 323 326 329 331 332 333 335 335 335 335 335 334 331 327 326 328 330 330 328 326 325 325 325 326 325 326 326 325 324 324 324 323 324 325 325 325 326 325 324 324 324 324 324 324 324 324 323 323 323 323 322 321 320 319 318 317 317 316 315 314 313 313 313 312
322 322 322 322 322 322 322 322 322 321 321 321 320 321 321 321 322 322 323 322 323 323 324 324 325 326 329 332 335 334 333 333 335 335 333 330 328 327 328 329 327 325 324 324 325 325 325 325 325 324 324 323 323 322 323 323 324 324 325 325 324 324 324 323 323 323 323 323 322 322 322 321 321 320 319 318 318 318 317 316 316 315 314 312 311 310 308
320 319 319 319 319 319 319 319 320 320 321 320 320 320 320 321 322 323 324 323 323 324 325 324 324 324 327 333 335 332 330 331 334 334 332 330 329 328 327 327 326 325 324 324 324 324 324 324 323 323 322 322 322 322 323 323 323 324 324 324 323 323 323 322 322 321 321 321 321 321 320 320 319 318 318 318 317 316 316 315 314 313 312 311 310 308 307
318 318 318 318 318 318 318 319 319 320 320 321 321 321 321 322 323 323 323 323 324 325 324 325 324 325 327 332 333 331 330 332 333 332 331 329 329 327 326 326 326 325 324 323 323 322 323 323 321 320 320 321 321 321 321 322 323 324 323 323 323 322 322 321 321 320 320 320 320 319 318 318 317 316 314 314 313 312 311 312 311 311 311 310 309 308 307
319 319 320 320 320 320 320 321 321 322 322 322 322 322 323 323 323 324 324 323 324 325 325 325 325 326 327 329 331 331 331 332 331 330 329 328 326 326 325 325 325 324 324 323 322 321 321 321 319 319 320 321 321 320 319 320 321 322 322 321 321 320 319 319 319 318 318 318 318 316 315 314 313 311 310 310 309 309 310 311 311 310 310 309 309 308 307
320 320 321 321 321 322 322 323 323 323 323 323 323 323 324 324 324 325 324 324 324 325 325 325 326 327 329 330 331 330 330 329 328 327 327 325 325 325 324 323 322 323 323 323 322 321 320 319 319 320 321 321 320 319 319 319 320 321 320 320 320 319 318 318 317 317 317 317 316 314 313 312 311 310 310 311 311 310 310 310 310 309 309 309 308 307 307
320 321 321 322 322 322 323 323 323 323 323 324 324 324 324 324 325 325 325 325 326 327 327 328 328 329 329 330 329 328 327 326 326 326 325 324 324 324 323 322 322 322 322 321 320 320 319 319 319 320 320 319 318 318 318 317 318 318 318 317 317 317 316 316 316 315 314 314 313 313 312 311 310 310 310 311 311 310 309 309 308 308 308 308 307 307 306
320 321 321 322 322 322 323 323 323 323 323 323 323 324 325 326 326 326 326 327 328 328 328 329 329 329 329 328 327 326 325 324 324 324 323 323 323 323 322 321 321 320 319 319 320 318 317 318 319 319 318 318 317 316 315 314 314 315 315 314 314 314 313 313 313 312 312 312 312 311 311 311 310 310 310 310 310 309 308 307 307 307 308 307 306 306 306
321 321 322 322 323 323 324 324 324 323 323 323 324 326 327 328 329 328 328 329 329 328 328 329 329 328 327 326 325 324 323 323 323 323 323 322 322 321 320 320 319 317 318 319 319 316 316 317 318 318 317 316 316 315 314 313 314 315 315 314 314 313 313 313 313 313 313 312 312 311 311 311 310 310 309 309 308 308 308 307 307 307 307 307 306 306 306
320 321 322 323 323 324 325 325 324 323 324 325 325 325 326 328 328 329 329 328 328 328 327 327 327 326 325 324 324 323 322 322 322 322 321 321 321 321 320 319 318 318 318 318 317 315 316 317 317 316 315 315 314 313 312 312 313 314 314 314 313 313 313 313 312 312 311 311 311 310 310 310 309 309 308 308 307 307 307 307 307 307 306 306 306 306 305
319 320 320 320 321 322 323 324 323 323 325 326 325 325 325 326 327 327 327 326 326 326 325 324 324 323 323 322 322 322 322 321 321 321 321 320 320 320 319 319 318 318 317 317 316 316 315 315 315 315 314 313 311 308 308 309 311 312 312 312 311 311 311 311 311 311 310 310 309 309 308 308 308 308 307 307 307 307 306 306 306 306 306 305 305 305 304
319 318 318 319 320 320 321 322 323 323 324 325 325 325 325 325 325 325 325 324 323 322 322 321 320 320 321 321 321 321 321 321 321 321 321 320 319 319 319 318 318 316 315 316 317 315 314 314 314 313 311 308 305 304 306 308 309 309 309 310 310 310 310 310 309 309 309 309 308 308 307 307 307 307 306 306 306 306 306 305 305 305 305 304 304 304 303
320 319 319 320 321 321 321 322 322 322 322 322 323 323 323 323 323 322 322 321 319 318 318 319 318 318 319 320 320 320 320 320 320 320 320 319 319 319 318 318 316 314 313 314 315 314 313 313 311 308 306 304 303 304 306 308 307 307 308 308 309 309 309 309 308 308 308 307 307 307 306 306 306 306 306 305 305 305 305 305 305 305 304 303 303 303 303
319 320 321 322 321 321 320 320 320 320 321 322 322 321 321 321 321 320 319 319 318 318 319 319 317 315 316 319 320 320 320 320 319 319 319 319 319 318 317 316 315 312 311 312 313 313 312 310 307 305 304 304 305 306 307 307 306 306 307 307 308 308 308 308 308 307 307 306 306 305 305 305 305 305 305 304 304 304 304 304 304 304 303 303 303 303 302
318 319 320 320 320 320 320 319 320 321 321 322 321 321 320 319 318 317 317 317 318 319 320 319 318 317 318 319 320 320 319 319 319 318 318 318 318 317 316 315 313 311 310 312 312 312 311 309 306 305 306 305 306 307 308 306 306 306 306 306 306 307 307 307 307 306 306 306 305 304 304 304 304 304 304 303 303 304 303 303 302 303 303 303 302 302 301
319 319 319 318 319 319 319 318 319 320 320 320 319 320 320 320 320 319 319 319 319 320 320 320 320 320 320 320 320 320 319 319 319 318 318 317 317 316 315 315 312 309 310 312 313 311 310 309 307 306 305 305 306 308 308 306 306 306 305 305 305 306 306 306 306 305 305 305 304 304 303 303 303 303 303 303 303 303 303 302 302 302 303 302 301 301 300
318 318 318 318 318 318 317 317 318 318 318 318 318 319 320 320 320 321 321 321 321 321 321 321 321 321 321 321 321 320 319 318 319 318 317 317 316 315 315 314 311 309 309 312 312 310 310 310 309 307 305 305 307 308 307 306 305 305 304 304 304 305 305 305 305 304 304 304 303 303 303 303 303 303 303 303 303 303 303 302 302 302 302 301 301 301 300
316 316 316 316 316 316 317 317 317 317 317 317 317 319 320 321 320 321 322 322 321 321 321 321 321 321 321 321 320 319 319 319 319 318 317 316 315 314 314 314 312 310 310 311 312 311 310 310 310 308 307 306 307 308 307 306 305 304 304 303 303 303 303 304 303 303 303 303 303 303 303 303 303 303 303 302 302 302 302 301 302 301 300 300 301 301 300
316 316 316 316 315 316 316 316 316 317 318 318 319 320 320 320 320 320 321 320 320 321 320 320 320 320 320 320 320 319 319 319 319 318 316 315 315 314 314 314 313 311 310 310 311 311 311 310 310 309 308 307 307 307 307 306 305 304 303 303 302 302 303 302 302 302 302 302 302 302 302 302 302 302 301 301 301 301 301 301 301 300 299 299 299 299 299
316 316 316 316 316 316 317 316 317 318 319 319 319 319 320 320 319 319 319 319 319 319 319 319 319 320 319 319 319 319 319 319 319 317 316 315 315 314 314 314 313 312 310 310 311 311 311 310 310 309 308 308 307 307 306 305 304 303 303 302 302 302 302 302 302 302 302 302 301 302 302 302 302 301 301 301 301 301 300 300 300 300 299 298 298 299 300
Wind_Speed
19 19 20 20 18 17 17 18 20 21 21 19 17 17 17 12 10 10 6 7 11 13 11 10 8 5 6 8 9 9 10 11 11 12 15 17 18 19 21 23 25 26 27 28 29 29 30 31 33 32 27 23 20 18 16 16 14 12 12 12 11 9 9 10 10 10 10 10 10 10 10 11 12 12 13 14 14 13 14 15 16 16 17 17 17 17 17
19 22 25 22 15 12 15 18 20 20 19 20 19 18 19 18 14 11 9 9 10 10 11 10 9 8 8 8 10 11 12 13 13 12 14 16 17 19 21 23 25 26 27 28 29 30 31 33 34 32 27 23 20 17 16 16 15 14 14 13 11 9 10 11 10 10 11 11 10 10 10 11 12 12 13 14 13 13 14 16 16 17 17 17 16 16 16
15 21 24 19 13 14 19 20 21 20 19 20 20 18 17 17 14 11 10 11 10 8 11 12 7 5 6 8 10 12 13 13 13 13 14 16 16 18 20 22 24 26 28 28 30 31 33 35 35 32 28 25 20 17 17 17 16 15 15 13 11 9 10 11 11 11 11 11 11 10 10 11 12 12 14 14 13 14 15 16 16 16 16 16 15 15 16
11 16 16 12 13 19 22 21 21 21 20 19 16 14 14 12 9 7 7 10 9 6 9 10 6 5 8 10 11 13 13 11 10 11 13 14 15 17 19 22 24 26 28 29 30 31 33 35 35 33 30 26 22 20 20 18 16 16 15 14 11 10 11 11 11 11 11 11 11 11 11 11 12 13 14 13 13 14 14 15 15 15 15 15 15 15 15
11 15 13 12 15 17 16 16 19 20 19 17 14 13 12 8 5 6 7 8 6 4 4 5 5 8 10 10 10 11 10 8 8 10 11 12 14 15 17 20 22 24 26 27 28 30 32 35 36 34 30 26 23 22 21 19 17 16 15 14 13 12 13 12 12 12 12 12 12 12 12 12 13 13 14 13 12 13 14 14 15 15 15 15 15 15 15
11 15 14 13 14 13 10 10 13 15 15 14 14 14 11 6 5 7 9 8 5 2 3 6 8 10 10 10 10 9 9 10 11 12 12 11 12 14 15 17 19 21 22 23 26 28 31 34 34 31 28 25 23 22 21 20 19 18 17 15 15 14 14 14 13 13 13 13 12 12 12 12 13 13 14 13 12 12 13 13 14 14 14 14 14 14 14
10 12 11 12 13 10 7 7 8 11 12 13 14 15 11 9 9 11 11 10 5 4 6 8 9 10 9 10 10 11 12 13 13 12 11 10 11 12 14 16 17 18 20 21 24 26 28 29 29 27 25 23 21 21 21 20 20 21 20 17 16 16 15 15 15 14 14 13 13 13 13 13 13 14 14 12 12 12 13 13 13 14 14 14 14 14 14
9 9 10 11 7 2 2 4 5 7 9 10 13 13 11 10 10 9 9 9 6 6 9 10 9 9 9 11 12 12 12 11 11 10 9 11 12 12 14 15 16 18 19 20 23 24 25 26 25 23 22 21 19 20 20 20 20 22 21 19 18 17 17 16 16 15 15 14 13 13 13 13 13 14 13 12 12 12 13 13 13 14 14 14 13 14 14
8 9 10 8 2 2 5 5 5 6 8 8 8 9 8 8 8 8 8 8 7 8 11 10 6 6 7 11 12 12 11 11 10 9 8 10 12 12 13 14 15 17 19 20 21 23 24 24 22 20 19 19 18 18 19 19 20 20 20 20 19 19 19 18 17 16 15 14 13 13 13 14 14 14 13 13 12 12 12 13 13 13 14 14 13 14 14
7 9 11 8 7 9 8 6 5 7 7 5 4 4 6 6 8 11 10 7 6 7 9 7 4 4 7 9 9 9 12 11 10 9 8 9 12 13 14 14 15 17 18 19 20 21 22 22 21 19 18 17 17 19 19 19 19 19 20 20 21 21 20 19 18 17 16 15 14 13 14 15 14 14 14 13 12 12 12 12 13 13 13 13 13 13 14
9 10 10 8 9 8 4 7 13 13 10 6 5 4 6 7 9 13 9 6 5 6 7 5 3 4 7 8 4 8 13 13 13 12 10 11 13 13 14 15 16 18 18 19 19 19 19 20 20 19 18 16 17 18 19 20 20 20 20 21 21 21 21 19 17 17 16 15 15 14 14 15 14 14 14 14 13 13 13 12 13 13 12 13 13 14 15
9 10 9 8 8 3 1 5 9 11 11 7 6 7 6 3 5 5 2 3 5 5 6 5 4 6 8 7 2 6 12 14 14 13 12 14 15 15 15 16 16 17 18 19 18 18 18 19 19 18 17 17 17 18 19 21 21 21 22 22 21 20 19 18 17 17 17 17 16 15 15 15 15 15 15 14 14 14 13 13 13 13 12 13 14 15 16
11 10 10 9 6 2 4 5 5 9 9 8 7 6 1 3 3 2 2 5 7 5 5 6 6 8 9 7 5 6 11 14 15 15 14 15 16 16 16 17 18 18 19 19 19 18 17 18 18 17 17 18 19 19 19 20 22 23 23 22 20 20 20 19 19 18 18 18 17 16 16 15 15 15 15 15 15 14 14 13 12 12 13 14 15 16 15
10 9 10 10 5 1 2 8 9 8 8 6 3 2 4 1 2 2 3 6 7 8 8 7 8 11 10 8 9 10 12 14 16 16 15 16 16 16 17 19 20 19 18 18 18 16 15 16 16 16 18 21 22 21 21 22 22 23 23 22 21 22 22 22 21 20 20 19 18 16 16 16 16 16 16 16 16 15 15 15 13 14 14 15 15 16 15
9 9 11 11 5 1 4 6 7 5 4 1 3 3 2 1 2 2 4 6 6 8 10 10 11 13 12 10 11 12 12 14 16 17 17 18 18 18 18 19 18 16 15 15 15 13 12 12 13 15 19 21 23 23 24 24 23 22 22 22 23 24 24 25 25 23 20 19 18 17 18 17 17 17 17 17 18 17 16 16 16 15 14 14 14 15 16
7 8 6 4 1 5 5 3 3 3 1 4 3 1 2 2 3 5 7 7 7 9 11 12 13 14 12 12 13 12 13 14 16 18 18 18 19 18 17 17 15 14 13 13 12 11 10 11 12 16 19 20 21 23 23 22 21 20 20 22 24 26 26 26 27 24 20 20 19 18 19 19 18 17 17 18 18 18 17 17 15 14 13 13 13 14 15
2 1 3 3 4 6 6 4 3 3 3 3 2 3 4 4 5 6 8 9 10 10 10 11 13 14 14 14 11 9 10 13 14 17 18 18 18 17 15 15 14 12 11 10 9 9 11 14 15 17 18 18 18 19 20 19 18 17 18 20 23 25 26 25 25 23 20 20 19 19 19 19 18 17 17 17 18 18 19 18 15 14 13 12 13 13 14
2 4 6 5 4 4 4 5 4 4 5 5 5 4 5 6 7 8 9 11 11 12 12 11 12 14 15 14 12 12 14 15 14 16 16 16 16 15 14 13 14 12 9 9 8 7 8 12 14 15 17 17 18 18 17 17 16 16 17 19 21 24 26 25 24 22 20 19 19 19 19 18 19 18 16 15 17 18 18 17 15 14 12 12 12 13 13
5 2 2 3 3 3 4 5 6 7 8 7 8 7 6 7 8 9 10 11 12 13 14 13 14 14 14 15 16 17 17 16 16 16 16 15 14 14 13 14 14 11 8 7 7 5 5 6 8 10 12 14 17 18 17 15 14 15 18 19 20 22 23 23 22 21 21 21 21 20 19 19 18 16 14 15 17 18 17 16 15 14 13 12 13 14 13
4 3 2 2 3 6 7 8 8 9 9 9 9 7 7 8 8 8 9 9 11 12 12 13 15 15 15 14 14 13 12 13 14 15 16 16 15 14 13 13 12 9 8 7 5 6 6 7 9 11 11 11 13 15 15 14 14 15 16 17 17 17 18 18 19 20 21 20 19 19 17 17 17 16 16 18 19 18 18 19 16 13 11 11 11 12 12
3 4 4 4 4 6 7 9 10 10 10 10 9 8 8 8 8 8 7 6 7 9 10 10 12 14 16 15 15 14 12 13 13 14 14 15 15 14 12 11 10 8 6 6 7 8 9 11 12 13 14 14 13 13 14 14 13 13 13 13 14 15 16 18 19 19 19 18 18 18 18 19 21 20 20 20 18 17 19 21 19 16 13 11 12 12 11
2 3 2 1 2 4 5 9 10 10 10 10 9 9 9 9 10 9 8 5 4 5 6 6 9 13 14 14 16 18 17 15 13 13 14 14 13 12 10 9 7 7 8 9 9 10 10 12 14 14 14 13 13 12 11 11 10 11 12 12 13 15 16 17 18 18 18 18 18 18 17 19 20 18 16 18 20 21 22 22 21 20 18 17 17 17 16
2 5 6 6 4 2 5 9 9 9 9 10 9 9 10 10 11 11 9 7 4 2 3 3 7 9 7 9 12 14 14 14 13 12 13 12 11 10 10 8 7 9 10 10 9 10 11 12 13 12 11 9 9 8 8 8 9 10 11 11 13 14 15 17 18 18 18 17 16 14 13 16 18 17 15 18 22 24 26 26 24 23 22 21 20 19 18
5 7 7 7 6 6 7 8 9 7 7 8 9 10 11 11 11 11 11 9 6 3 3 4 6 6 5 7 11 10 10 13 12 12 12 12 10 9 8 8 10 10 10 9 9 10 11 10 10 8 6 5 6 6 6 7 8 9 9 11 13 14 15 17 18 17 16 16 16 14 13 16 18 16 15 17 21 24 26 27 27 26 23 22 21 20 19
6 7 7 6 7 9 9 10 8 5 4 7 10 11 12 12 12 12 11 9 8 6 6 7 7 8 9 11 12 11 10 11 11 11 12 12 10 8 7 8 10 10 9 9 9 8 8 7 6 5 4 4 7 8 7 7 9 10 10 11 12 13 14 14 14 13 12 14 16 16 15 15 17 15 14 17 21 24 26 26 26 25 23 21 20 19 18
8 8 8 8 8 9 9 9 8 5 6 9 12 13 13 13 13 13 11 9 9 8 8 8 8 8 9 11 12 10 9 10 10 11 11 12 11 10 10 11 10 10 10 9 7 5 4 5 5 5 4 3 7 10 9 8 10 12 12 12 12 13 13 13 13 13 12 13 15 16 15 16 17 17 15 14 16 20 22 24 24 23 21 19 18 18 17
9 10 10 9 9 8 7 7 8 9 11 13 14 14 14 14 13 13 12 11 9 9 9 9 8 6 6 9 10 9 10 13 14 12 10 11 11 10 10 10 10 9 8 7 7 6 5 6 5 4 3 6 11 12 10 10 13 14 13 12 12 12 13 13 13 13 14 15 16 16 15 15 16 17 15 12 13 16 18 19 20 20 18 16 15 15 15
10 9 8 8 8 8 8 8 11 13 13 13 13 14 15 14 14 15 15 14 12 11 11 10 9 7 7 9 11 11 12 14 13 11 10 10 10 10 10 10 9 7 6 6 7 6 5 5 4 3 5 10 13 11 9 11 14 13 11 11 10 10 10 11 12 12 12 12 12 13 13 13 13 14 14 13 13 15 17 17 17 16 14 11 8 6 7
8 7 6 6 7 8 9 10 11 12 13 13 13 14 14 15 16 16 16 15 14 13 13 13 12 11 10 10 11 11 10 11 10 10 10 11 11 11 11 10 8 7 7 7 6 5 5 5 5 4 6 9 10 8 8 11 12 10 9 10 10 9 9 11 13 14 12 10 11 13 14 11 9 10 13 13 13 13 14 13 12 10 7 4 1 4 6
7 7 8 9 9 11 12 12 12 12 12 13 14 14 14 15 16 17 16 16 16 16 15 15 14 12 12 11 11 12 12 12 10 10 10 11 12 12 11 9 8 7 7 7 7 6 5 4 4 4 5 6 7 7 9 9 10 10 11 11 10 10 11 13 15 16 15 13 12 13 12 8 7 7 8 8 8 7 6 6 6 6 5 4 3 2 3
9 10 11 12 12 13 13 12 12 12 12 12 13 14 14 15 16 16 16 16 16 16 17 17 16 15 15 15 15 15 14 14 13 14 14 14 13 13 11 9 7 8 8 7 5 4 3 2 2 4 7 6 6 7 9 10 10 11 11 10 11 11 13 14 14 14 14 12 11 11 9 6 6 7 6 4 5 7 7 7 9 9 7 7 8 10 11
11 12 13 12 12 12 12 12 12 13 13 14 15 15 16 16 16 17 16 16 16 16 16 16 17 17 17 16 16 16 16 17 18 17 17 16 15 13 10 7 8 10 10 8 6 5 4 3 2 3 6 5 5 7 9 10 10 11 10 10 10 10 11 13 12 11 11 11 10 9 8 6 6 7 6 6 5 5 5 7 10 9 7 7 9 13 15
12 12 12 12 12 13 14 14 15 15 16 17 17 17 17 17 18 18 18 17 17 16 16 16 16 16 16 15 15 15 17 18 17 15 14 15 15 12 9 8 8 9 9 7 5 3 2 2 2 3 4 4 5 8 9 10 11 11 10 11 12 11 11 11 10 8 8 9 9 8 6 6 5 5 4 5 5 4 4 4 3 3 5 7 9 13 13
12 13 14 14 15 16 17 17 18 18 19 19 19 19 19 18 18 18 18 18 18 17 16 15 16 16 16 16 16 15 15 16 15 15 14 14 13 11 10 9 7 6 5 3 2 1 2 2 2 2 3 5 5 7 8 9 10 10 8 9 11 10 8 8 8 6 5 5 6 5 4 3 3 2 2 3 3 3 3 1 0 1 4 6 8 8 7
15 16 18 18 18 19 20 20 20 21 21 21 21 21 21 20 19 19 19 19 18 17 16 17 18 18 16 16 16 16 17 17 15 15 14 13 12 11 10 9 7 5 4 3 2 3 4 3 3 3 3 4 4 6 6 6 5 6 7 8 9 8 6 5 5 5 4 2 2 3 4 3 2 2 3 4 4 3 3 5 6 6 4 4 5 5 4
18 19 20 20 20 21 21 21 22 22 22 22 22 23 23 23 22 21 22 21 18 16 16 16 16 16 16 16 16 16 16 16 14 14 14 14 13 11 10 8 7 6 5 4 4 4 4 4 5 5 4 2 3 6 6 4 3 5 7 7 6 6 6 4 4 5 5 4 4 4 5 4 3 2 2 3 4 5 5 6 6 5 4 5 5 5 4
18 19 20 20 20 21 21 21 21 21 21 22 23 23 24 25 24 22 22 20 18 16 16 15 15 14 15 15 14 12 12 12 12 13 13 13 12 10 9 7 6 5 6 6 5 4 5 4 3 2 2 2 3 5 6 5 5 4 5 5 5 5 5 4 3 3 3 2 3 3 3 2 2 3 3 4 5 5 4 4 4 5 5 6 6 5 4
20 20 20 20 20 20 20 21 20 20 21 23 23 24 24 24 23 22 20 19 18 16 14 14 13 12 11 11 11 12 12 12 12 13 13 12 11 9 9 8 6 4 6 6 5 5 5 3 3 4 3 3 1 1 2 4 5 3 2 3 3 3 3 3 2 2 2 3 4 4 2 3 5 5 3 3 4 5 5 6 6 6 7 6 6 6 5
21 20 20 20 20 20 20 20 20 20 21 21 22 22 22 21 20 19 18 17 14 12 10 10 9 10 11 11 11 12 11 11 11 11 11 11 10 10 11 11 10 8 7 6 6 6 5 4 4 3 3 4 3 3 3 4 4 4 3 4 5 6 6 6 7 7 7 7 6 5 4 5 5 5 4 5 6 6 7 8 7 7 7 7 7 6 5
22 21 20 20 19 19 19 20 19 19 19 19 19 19 18 17 16 16 15 12 11 10 10 11 13 14 13 12 11 12 11 10 9 9 9 9 10 10 11 12 11 10 8 7 7 7 7 7 5 4 4 5 4 2 1 2 3 4 2 1 3 4 4 5 5 6 5 5 4 4 4 5 5 5 6 7 7 6 6 7 7 7 7 7 6 6 5
21 20 19 18 18 18 18 18 18 18 17 16 15 14 13 11 9 10 9 8 8 8 9 10 12 12 12 12 11 10 10 10 9 9 9 9 9 10 10 9 7 8 11 10 9 8 9 8 5 5 4 3 5 6 3 1 1 3 3 3 3 4 4 4 4 5 6 6 6 6 6 6 7 7 7 8 7 6 6 6 6 7 7 7 6 6 6
20 19 18 17 17 17 16 15 15 14 13 12 11 9 8 6 5 6 8 8 8 8 8 8 9 10 10 11 9 8 8 9 9 10 10 10 9 10 11 10 8 10 12 11 8 7 8 6 5 7 6 5 7 8 6 3 3 5 7 8 7 8 8 8 8 9 9 9 9 9 8 9 10 9 9 9 8 7 7 6 7 7 7 6 6 6 6
18 18 18 18 18 17 14 11 10 8 6 6 5 4 3 4 5 6 8 9 9 9 9 8 8 7 6 7 7 8 9 10 10 10 11 9 8 8 10 10 9 10 10 8 6 6 6 5 7 10 10 8 7 6 3 2 3 5 6 7 8 9 9 8 8 9 9 9 10 9 8 9 10 9 9 9 8 7 7 7 7 7 7 7 6 6 6
14 15 15 14 14 13 10 6 4 3 1 0 2 3 5 7 7 8 9 10 10 9 7 6 6 5 3 4 6 8 10 11 11 11 11 10 7 7 8 9 9 10 12 10 6 6 7 8 10 12 10 8 7 4 1 2 4 5 5 5 6 7 7 7 8 7 7 8 8 8 7 8 9 9 9 9 8 7 7 7 7 7 7 6 6 6 6
12 11 10 8 7 6 4 4 4 4 3 2 3 4 5 5 6 6 6 5 4 3 2 3 4 6 6 7 8 9 10 10 11 11 11 11 10 9 8 7 8 11 13 11 7 7 9 10 11 9 5 3 2 1 1 2 4 5 5 6 6 6 7 8 9 8 7 8 9 8 7 7 8 8 8 9 8 7 7 7 7 7 7 7 6 6 6
9 7 6 4 3 3 3 3 4 4 2 0 1 2 3 3 3 3 3 2 2 2 3 3 4 5 6 8 9 9 9 10 10 10 10 11 11 11 10 8 9 11 11 9 8 9 11 10 7 3 1 1 3 3 0 3 4 4 5 6 6 7 7 8 8 8 8 9 9 8 7 7 7 8 8 9 7 7 8 9 8 6 6 6 6 7 7
6 4 4 4 4 4 4 4 4 2 0 2 2 1 1 1 2 3 3 2 2 3 3 3 3 4 6 8 10 10 9 10 9 8 8 9 10 11 11 11 11 12 11 8 8 11 12 9 4 2 1 2 4 4 1 4 4 4 5 5 5 7 7 7 8 8 8 8 8 8 8 7 7 8 9 9 8 7 8 9 8 7 7 7 8 9 9
6 5 5 5 5 4 3 2 1 1 1 1 1 1 1 1 1 1 2 2 3 3 3 3 4 5 7 9 9 9 9 10 10 9 9 10 11 12 12 12 13 13 12 9 10 12 11 9 6 3 2 2 3 1 4 6 6 6 7 6 5 6 7 7 8 8 8 8 8 8 8 8 8 8 9 9 8 7 8 8 7 7 8 8 8 9 8
9 9 8 8 6 5 4 3 2 2 1 0 0 1 2 3 3 3 3 3 3 3 4 4 4 5 6 7 8 8 8 9 9 9 10 12 12 12 12 13 13 12 10 8 10 12 12 10 10 9 6 2 0 3 7 8 8 8 8 7 6 6 6 7 9 9 8 8 8 8 8 9 9 9 9 8 8 8 8 7 8 9 10 9 7 8 8
9 8 7 6 5 4 3 3 3 2 2 3 4 4 3 3 2 2 3 3 3 3 4 4 4 5 5 6 6 7 8 8 8 9 11 12 12 12 13 14 14 12 9 8 9 13 14 13 12 12 11 7 4 6 8 9 8 8 9 9 8 7 8 10 12 11 9 7 8 9 9 9 9 10 9 8 8 8 9 8 9 12 13 12 9 7 8
8 7 7 6 5 4 4 4 3 2 2 3 3 3 3 3 3 2 2 3 4 4 4 5 5 5 6 6 6 7 8 7 8 10 11 12 11 12 13 13 14 13 12 9 9 11 12 11 12 12 11 8 7 9 11 11 10 10 11 11 10 9 9 10 11 11 10 9 9 9 10 9 9 9 9 9 8 9 9 9 9 11 12 12 11 9 8
6 6 6 6 5 4 5 5 4 3 3 3 3 3 3 3 3 3 3 4 5 5 6 6 6 6 7 8 8 8 9 9 9 10 11 12 12 12 13 13 13 13 13 12 11 10 9 9 10 11 9 8 8 10 12 11 10 10 10 10 11 11 10 9 9 10 10 10 10 9 9 9 9 9 9 9 10 10 10 10 10 9 9 11 11 11 10
Wind_Direction
238 246 242 233 227 224 223 219 221 226 229 230 232 237 238 232 236 248 230 213 244 260 264 279 299 290 261 266 269 265 260 252 238 221 206 199 197 195 194 195 195 192 189 185 182 180 180 186 192 194 191 189 190 194 196 195 199 202 207 223 237 234 228 240 250 254 256 258 259 262 264 265 269 276 282 286 290 293 292 292 295 295 292 291 290 292 295
228 234 240 241 243 241 237 232 229 228 225 223 227 234 237 235 237 238 227 225 241 257 270 283 300 300 285 277 277 271 262 256 247 228 212 206 203 199 197 196 195 193 191 187 184 184 186 192 195 193 190 186 187 195 202 202 200 201 210 229 245 238 231 243 252 255 263 268 268 267 263 262 269 276 282 288 289 289 291 294 297 296 293 292 292 293 294
230 230 232 231 232 240 243 242 239 238 236 232 230 231 233 237 238 229 228 244 247 248 266 272 273 279 272 263 265 266 262 258 251 237 224 216 210 204 200 197 195 193 191 189 188 188 191 195 195 191 188 189 194 202 204 201 201 203 213 229 245 242 236 241 247 252 262 267 268 268 262 260 267 275 283 289 289 287 292 297 298 297 297 296 294 293 292
243 243 239 232 235 240 242 244 241 238 239 240 237 235 236 238 239 228 232 250 254 255 267 263 234 231 257 263 265 266 263 257 252 246 238 228 220 211 203 198 195 195 194 193 192 190 191 194 193 191 193 198 202 201 198 199 203 207 215 228 241 240 235 239 247 252 256 258 260 261 258 258 265 276 285 288 285 287 293 298 298 298 298 297 297 296 294
240 243 237 235 241 243 239 238 239 240 241 243 241 237 240 247 245 239 243 250 260 280 285 270 256 261 272 279 282 280 271 259 255 255 249 238 226 214 206 200 197 198 197 197 195 189 188 192 194 196 200 202 202 199 197 198 199 202 211 223 235 237 232 234 244 251 254 253 252 252 253 258 265 274 283 283 281 287 293 295 296 297 299 299 300 298 295
242 240 231 233 240 238 239 243 244 245 245 246 250 246 237 225 224 246 264 272 280 297 279 271 273 276 282 287 287 287 279 268 260 253 244 234 223 211 204 200 198 198 197 197 195 188 186 192 197 199 201 201 203 204 202 200 202 207 211 217 228 233 231 233 240 246 250 249 246 247 250 256 263 269 275 277 278 283 290 293 294 296 298 299 299 298 297
244 243 230 233 237 234 246 257 248 246 244 240 248 253 242 226 229 239 252 262 263 260 264 269 271 272 278 280 278 275 268 259 252 244 228 216 210 202 197 194 193 193 192 191 190 187 185 187 191 193 197 199 203 209 208 204 209 219 223 223 229 231 228 231 238 242 243 244 244 246 250 254 260 263 268 272 276 280 286 290 291 294 297 298 297 298 299
240 239 227 229 239 245 250 250 239 246 253 241 238 245 244 239 241 236 236 246 250 259 267 266 262 266 275 276 270 262 253 241 233 230 218 203 198 193 189 188 186 186 186 185 184 183 182 183 184 188 195 198 202 208 209 205 210 225 231 230 230 230 226 227 233 236 235 237 242 246 249 253 256 258 262 266 271 275 281 286 288 293 296 296 294 295 296
230 238 235 226 230 235 214 214 222 230 241 237 234 241 234 223 231 237 239 246 248 263 273 272 270 281 281 274 263 241 223 218 217 217 206 191 186 183 180 180 180 181 180 179 180 180 181 184 184 187 194 200 202 205 207 206 211 221 228 230 232 233 230 227 227 228 227 231 240 245 247 250 252 253 258 263 267 270 276 284 288 292 295 294 292 293 296
218 239 247 232 232 237 213 194 212 227 230 209 187 230 215 190 224 246 247 245 244 259 269 266 274 286 274 272 261 218 195 192 190 189 181 172 170 169 168 169 171 173 173 174 177 180 183 186 187 189 196 201 206 209 209 211 214 216 220 228 232 234 234 229 224 225 226 228 236 242 245 249 251 252 256 258 261 265 271 278 284 289 294 293 291 293 298
219 232 244 239 245 253 221 209 216 213 209 176 148 220 228 195 219 239 240 240 249 261 265 255 248 258 265 279 262 179 174 173 170 171 166 157 157 158 159 162 165 168 170 173 176 180 184 190 193 196 200 204 210 216 217 217 219 218 220 226 229 231 234 231 224 226 229 229 234 242 245 248 250 250 251 253 257 261 266 273 280 286 289 289 291 295 296
233 235 240 243 253 259 123 239 222 192 187 183 188 234 246 183 196 224 238 261 260 258 257 253 243 244 263 298 332 162 172 170 164 163 159 153 154 154 153 158 164 170 173 175 177 181 187 194 200 203 208 214 218 221 223 224 226 225 225 228 228 228 229 228 226 228 230 231 234 239 244 247 248 248 247 250 254 259 263 270 278 283 284 285 290 294 296
236 240 243 245 246 171 161 213 194 163 178 201 221 246 299 96 151 184 233 266 277 277 254 243 248 255 261 282 284 216 188 171 161 160 157 154 154 152 153 159 164 167 173 178 181 184 191 199 205 209 215 224 228 227 227 230 231 232 232 229 227 227 227 227 228 229 232 234 234 238 243 244 245 244 244 247 251 255 261 267 271 273 276 281 286 291 297
235 242 250 247 250 20 214 201 175 173 202 216 226 338 25 77 205 199 224 255 282 294 278 263 262 268 268 265 255 230 196 174 166 162 156 154 153 152 158 165 165 164 170 179 182 185 194 205 212 219 228 237 244 243 240 239 241 242 240 233 228 229 229 228 230 232 234 235 233 234 239 241 242 243 241 243 248 253 257 259 260 265 271 276 283 290 296
236 241 251 252 241 234 239 208 168 178 229 189 84 57 48 204 228 261 261 266 286 290 287 283 272 269 270 263 249 227 199 182 174 166 160 158 156 156 162 167 165 163 169 178 182 186 198 210 221 234 241 246 252 254 254 256 258 256 248 239 235 234 231 232 238 239 235 232 230 231 235 238 241 242 242 244 247 249 252 253 254 260 266 270 278 288 295
250 241 246 271 142 150 182 185 122 131 102 69 66 355 282 244 254 276 281 287 289 283 284 284 274 267 265 260 246 222 200 190 177 166 163 161 158 160 165 165 164 166 171 177 183 192 203 209 219 237 248 254 260 265 269 274 271 263 252 244 241 240 235 237 244 244 235 231 230 232 238 242 243 246 251 255 252 246 244 246 249 254 259 263 272 284 294
336 144 128 87 86 120 138 132 111 113 99 75 41 310 295 292 297 299 295 290 284 277 273 271 265 259 254 251 241 215 201 200 183 166 161 161 161 162 164 166 169 171 174 177 180 191 211 220 228 242 255 265 273 278 283 284 277 264 252 243 240 240 238 238 244 243 235 231 232 235 241 245 247 252 260 261 255 249 244 242 245 248 250 258 271 282 292
102 98 105 109 103 108 125 129 107 69 48 41 28 7 341 327 323 314 302 294 288 279 270 263 259 253 245 237 229 220 211 199 178 160 155 158 162 161 159 166 172 169 170 184 187 193 223 241 253 265 275 282 287 289 289 285 275 260 250 244 242 244 243 242 243 241 233 233 239 242 244 246 249 255 259 256 253 255 250 244 244 248 250 261 275 284 292
196 184 108 104 103 90 84 85 68 45 33 29 25 17 356 337 325 312 302 294 285 277 268 259 254 249 239 226 217 212 203 184 165 155 152 150 152 154 159 174 183 178 170 179 187 195 216 237 256 268 279 287 291 294 296 292 277 261 255 254 251 249 246 242 239 239 238 241 244 245 248 253 252 250 250 248 250 256 254 248 248 254 261 271 278 284 293
176 152 161 151 109 91 78 67 51 32 20 17 18 13 356 339 325 315 308 295 284 277 268 259 252 243 233 219 203 188 178 173 165 156 149 147 149 156 168 180 186 183 176 179 196 221 236 250 262 272 280 283 283 287 288 285 275 265 261 260 254 246 242 241 241 242 244 245 243 243 251 258 254 249 251 253 252 253 249 243 241 245 257 269 274 281 293
147 138 181 200 176 139 98 65 44 28 15 11 14 11 1 353 341 328 319 307 295 287 278 270 258 240 223 205 187 175 180 190 178 155 148 154 162 169 177 181 180 184 198 221 245 256 265 275 283 291 296 295 292 290 284 279 275 264 255 251 249 246 246 249 249 245 242 243 245 249 256 254 248 251 260 257 247 242 240 237 234 236 247 260 264 268 280
202 130 103 19 211 173 92 44 27 20 17 14 15 15 10 6 356 339 320 311 325 329 321 299 262 240 217 194 192 195 193 187 174 153 145 148 157 168 177 180 189 216 239 251 259 268 278 288 293 300 304 301 300 298 286 275 269 258 247 246 252 257 257 255 252 246 241 244 251 255 256 251 245 251 261 251 238 237 242 243 242 245 253 261 263 266 273
93 74 47 29 20 40 43 23 8 10 17 14 12 13 10 3 357 347 327 308 309 351 356 302 258 241 207 189 211 214 188 165 161 157 154 155 165 180 190 200 218 238 246 251 261 275 287 294 299 306 310 304 302 303 289 270 263 259 255 255 260 264 263 262 263 259 252 255 262 259 254 255 255 253 248 241 239 242 247 248 248 251 256 261 263 268 274
70 62 35 18 4 351 353 355 351 359 13 11 5 2 359 353 349 347 337 320 306 283 242 240 248 245 218 210 229 226 183 160 159 161 167 179 186 186 197 223 236 239 245 256 271 282 289 296 303 309 308 291 289 298 291 277 274 269 262 261 266 268 269 271 274 270 259 258 267 268 264 265 262 249 236 243 251 252 251 250 251 253 255 257 260 265 270
17 30 18 359 339 327 323 324 321 324 1 4 353 346 344 342 339 337 333 322 309 286 251 233 229 225 217 219 226 218 182 163 165 176 188 199 205 198 192 206 220 229 244 261 271 279 289 299 301 300 296 284 287 296 295 284 283 281 272 267 270 273 274 274 274 271 263 259 264 267 265 265 265 259 252 252 252 249 247 250 254 254 253 254 259 265 268
343 347 340 324 310 305 307 305 297 302 340 343 334 329 329 327 325 323 317 307 300 292 275 260 242 220 211 220 226 213 181 181 202 214 211 211 215 206 188 189 210 233 249 259 263 264 271 279 279 283 289 276 283 296 297 284 284 288 282 274 270 271 272 270 266 265 267 266 266 267 265 263 268 271 266 253 244 245 251 256 256 254 253 256 262 266 267
320 320 319 311 298 293 301 305 306 315 323 320 315 315 315 311 309 307 298 285 278 278 277 273 258 230 218 224 221 203 195 212 223 216 198 196 199 187 175 189 220 237 239 244 254 255 257 270 277 281 274 268 279 291 292 282 284 289 283 275 275 274 274 275 274 273 272 270 271 274 275 274 274 273 269 259 252 256 265 267 264 262 264 266 265 266 267
302 300 298 294 292 298 304 304 304 306 306 304 304 306 305 300 295 291 286 281 275 266 264 268 264 248 237 231 223 211 208 217 216 200 188 193 189 176 181 203 221 220 209 224 252 265 266 274 276 252 253 273 284 290 283 279 284 286 277 273 276 276 278 281 279 276 277 278 276 271 270 273 277 277 276 270 259 259 268 272 267 265 264 257 254 274 291
291 296 297 297 303 304 299 296 297 297 297 299 300 299 298 296 291 285 282 283 281 271 262 261 260 252 244 241 235 226 217 215 209 196 192 192 184 185 203 216 207 188 185 200 226 246 256 268 275 263 263 279 288 285 273 275 279 275 268 267 267 266 269 267 260 258 261 268 272 268 263 263 267 269 272 272 265 263 269 265 255 250 245 231 267 6 345
311 317 312 306 304 300 295 295 296 295 296 297 296 295 295 293 288 285 282 281 282 279 272 266 260 254 247 243 241 239 237 233 220 198 191 192 190 195 205 203 186 181 189 201 222 246 259 266 277 276 272 278 286 282 277 277 276 271 269 268 265 263 264 261 256 255 255 258 266 269 263 256 251 247 255 264 253 233 224 213 197 182 174 181 193 189 216
316 312 307 303 301 298 295 295 295 294 295 296 296 296 295 290 287 286 285 281 279 278 273 267 261 254 248 246 245 243 241 233 214 197 194 199 201 202 202 195 189 195 196 195 208 235 241 233 241 255 256 259 272 281 282 282 279 276 275 275 272 273 275 273 268 261 255 256 266 266 251 233 230 227 219 220 219 210 199 179 167 172 190 216 227 220 225
314 308 305 303 301 298 297 297 298 298 298 298 297 295 294 292 289 286 284 282 281 278 273 268 260 250 246 246 242 229 220 213 204 197 200 207 212 213 208 194 191 198 203 210 222 222 211 205 212 242 256 264 278 285 287 289 286 281 281 280 274 269 273 276 275 268 258 251 253 252 234 211 214 223 222 226 227 213 192 180 181 196 226 248 250 247 251
311 306 305 306 305 303 302 301 299 297 296 295 294 291 288 286 284 283 282 281 279 277 274 271 265 255 247 241 227 209 204 204 196 186 193 209 215 211 196 180 186 202 213 226 236 223 193 191 202 232 262 277 286 286 287 287 283 277 275 273 269 267 269 270 267 267 263 251 242 242 234 221 223 227 220 217 209 179 155 164 192 251 274 271 264 262 262
303 299 299 300 298 296 296 296 295 294 294 292 290 289 287 284 282 282 281 279 276 275 274 274 272 266 252 235 220 209 211 208 189 175 187 203 202 190 179 172 178 194 198 190 188 187 192 199 199 226 273 278 281 286 287 282 275 271 266 262 260 260 265 264 253 244 249 251 247 248 248 238 231 208 158 153 147 122 109 118 200 274 281 287 287 275 255
298 294 293 292 290 290 291 291 291 291 290 289 288 287 286 285 284 282 281 279 274 271 271 272 273 269 255 236 223 223 225 216 192 176 180 181 170 165 167 163 158 159 148 135 167 214 235 239 218 212 240 264 270 273 274 272 268 262 256 252 247 239 236 244 239 221 208 186 179 212 216 188 157 148 139 140 144 148 177 209 214 213 226 264 286 282 258
293 291 290 289 287 287 286 285 285 285 285 285 285 285 284 283 282 281 281 278 273 268 268 268 266 260 249 238 232 230 224 209 186 169 164 162 158 159 160 155 152 154 149 153 187 218 252 261 236 215 214 241 259 255 248 236 233 251 250 244 235 230 227 216 193 191 191 174 170 198 208 192 177 192 204 210 223 233 232 225 222 216 210 223 248 265 274
289 287 286 285 285 284 283 283 282 282 282 281 280 280 280 280 279 277 276 274 271 268 267 266 261 255 247 238 228 215 200 187 173 161 158 158 156 154 156 161 173 187 188 183 192 222 248 249 222 177 169 222 265 268 249 221 211 232 241 228 210 206 202 186 173 186 197 189 198 215 217 213 235 256 269 270 266 258 235 214 214 217 212 210 215 225 233
286 284 282 282 282 282 282 281 280 279 280 280 279 277 276 276 275 273 270 268 265 262 259 257 253 243 224 204 186 176 173 171 165 159 157 155 150 152 160 165 170 198 212 201 200 224 234 207 134 121 148 178 225 275 203 187 184 180 166 161 165 167 166 165 172 185 185 196 220 239 248 257 270 275 267 247 237 222 210 212 219 220 213 206 204 208 213
284 282 280 279 280 280 281 281 279 277 277 277 278 278 276 272 268 266 263 258 250 240 230 221 208 189 177 171 168 168 168 166 163 159 153 147 149 159 167 169 173 188 202 203 209 217 202 157 130 136 150 140 127 125 136 144 147 142 137 147 163 174 184 191 197 202 204 209 224 244 248 247 259 266 244 223 222 221 221 224 220 209 202 200 200 201 201
283 281 279 279 282 284 284 282 278 276 276 276 278 281 281 274 264 257 249 237 222 210 200 188 177 171 168 165 164 164 159 155 159 162 155 152 159 167 170 176 186 186 176 178 195 193 163 141 142 153 141 132 139 144 81 70 111 131 135 149 173 188 204 213 218 229 239 244 251 259 254 245 245 247 241 237 236 229 225 223 213 199 193 193 192 190 191
281 279 278 279 283 286 288 285 280 277 275 276 277 280 280 272 254 238 222 201 183 180 181 177 172 170 166 159 158 163 163 159 164 173 173 172 174 171 165 166 170 162 162 177 192 171 139 133 153 165 152 160 184 188 187 168 172 193 224 245 236 226 234 241 244 248 253 256 256 257 256 254 252 250 249 250 244 230 217 208 195 188 189 190 185 186 189
279 275 276 281 285 288 288 288 285 281 277 274 274 274 271 256 225 198 181 168 158 155 157 158 161 164 162 158 158 167 174 171 174 184 189 187 184 177 168 163 168 176 182 191 192 163 138 139 170 175 173 198 212 205 198 205 237 248 250 250 246 242 243 248 253 254 254 253 254 255 256 256 254 250 247 245 238 222 208 200 193 191 191 188 184 187 190
278 270 271 280 293 302 304 299 292 288 281 270 259 236 194 167 162 160 154 147 143 138 132 135 144 153 164 172 175 178 183 185 184 185 184 183 185 183 174 170 182 193 186 175 170 167 158 170 201 203 205 221 240 241 236 246 262 265 263 257 252 248 246 250 255 254 249 247 247 246 246 249 248 243 239 236 229 214 203 198 194 190 188 186 185 186 185
283 275 273 282 300 317 328 328 318 312 316 210 175 160 146 141 146 151 148 147 149 145 136 140 154 162 177 193 188 185 188 188 183 177 173 171 172 177 176 179 191 188 171 160 171 186 180 195 222 230 234 248 264 270 268 255 259 263 264 263 257 248 244 248 252 249 244 244 242 236 231 232 234 232 230 225 216 205 200 198 194 191 189 187 187 188 188
287 278 276 286 305 320 337 3 8 2 14 66 97 114 127 135 144 151 151 158 176 195 220 223 206 196 190 189 191 194 195 191 185 183 181 178 174 169 167 175 189 181 166 159 169 185 194 216 237 244 252 273 279 239 173 257 269 267 263 261 256 246 240 243 246 243 240 243 243 236 225 219 218 219 221 220 212 202 198 195 192 192 191 189 190 193 193
286 266 257 273 297 291 283 315 346 355 348 232 147 117 123 135 159 173 173 172 179 186 197 213 213 201 191 189 193 200 200 195 193 193 191 187 182 172 164 173 190 183 165 155 167 190 208 226 234 216 179 61 84 99 177 279 287 280 269 263 256 247 241 239 237 233 231 233 234 230 224 216 212 213 216 214 207 202 200 195 190 192 195 195 197 198 194
301 279 273 288 295 286 281 297 326 355 216 220 225 182 151 187 217 210 204 200 186 182 197 217 223 212 202 198 200 202 199 192 190 188 183 181 180 173 169 181 190 179 164 165 189 203 216 229 224 173 40 38 76 90 297 297 308 298 280 269 258 250 244 236 232 229 224 220 221 219 215 211 209 212 217 215 207 204 207 205 200 201 202 200 201 205 206
1 358 360 357 349 341 338 348 23 63 99 151 141 101 136 193 186 168 188 209 202 198 209 217 211 209 207 204 205 208 203 192 188 186 181 180 179 176 180 191 190 174 167 187 206 205 211 234 254 267 307 22 70 61 294 299 305 301 294 286 268 255 245 237 236 235 225 216 217 217 216 214 212 212 217 217 211 208 213 211 205 205 208 209 213 216 217
22 16 16 19 16 8 8 16 23 26 36 60 241 244 228 214 194 175 188 206 203 197 203 206 203 205 208 205 206 207 200 191 191 193 187 180 177 177 187 203 206 189 177 196 220 222 230 253 270 273 275 285 322 279 282 285 287 290 293 288 275 261 246 233 230 227 220 220 222 221 219 219 218 216 215 213 208 209 211 205 202 208 210 206 210 217 214
33 28 26 23 15 1 352 346 338 323 263 235 229 223 218 222 219 201 202 215 219 215 215 214 208 209 215 213 208 202 195 190 192 195 190 184 181 182 192 211 225 220 200 197 223 237 244 254 264 268 267 264 259 266 274 276 279 286 289 285 275 264 252 240 228 216 209 216 225 223 221 221 218 215 212 208 206 210 210 204 210 221 218 207 202 213 215
30 31 29 24 18 12 0 347 328 283 247 250 250 243 242 257 268 262 244 242 241 234 233 232 222 217 221 220 210 201 197 195 195 196 196 195 194 193 196 208 220 220 207 202 225 247 252 254 260 265 263 255 252 262 267 266 267 275 280 275 267 260 257 251 241 227 220 223 225 222 221 221 219 217 216 214 213 214 213 208 215 229 230 219 212 215 216
16 15 9 359 351 350 351 343 327 313 312 312 306 300 295 290 288 283 273 265 258 250 246 246 238 225 222 224 220 214 214 216 214 207 203 200 199 201 204 209 213 212 207 208 222 241 251 253 256 256 247 235 244 264 270 268 269 276 276 267 259 254 250 248 242 232 227 229 230 226 223 222 221 220 220 218 217 218 219 217 218 225 229 223 216 213 212